[[{"header":{"parameterUnit":"m.s-1","parameterCategory":1,"la1":30.2992,"la2":30.254,"lo1":-89.0895,"lo2":-89.0443,"dy":0.0025,"dx":0.0025,"nx":19,"ny":19,"refTime":"2026-05-15T21:00:00:Z","depth":0,"parameterNumber":2,"parameterNumberName":"U-component_of_WINDS"},"data":[0,0,0,-1.5235,-1.5236,-1.5319,-1.532,-1.5428,-1.5429,0,0,0,0,0,0,0,0,0,0,0,-1.5211,-1.5212,-1.5234,-1.5237,-1.5319,-1.532,-1.5428,-1.5429,0,0,0,0,0,0,0,0,0,0,0,-1.521,-1.5211,-1.5212,-1.5237,-1.5319,-1.532,-1.5428,-1.5365,0,0,0,0,0,0,0,0,0,0,-1.5284,-1.5262,-1.5211,-1.5212,-1.5237,-1.5319,-1.532,-1.5362,-1.5369,-1.5392,0,-1.5412,0,-1.5422,-1.5437,-1.5437,0,0,0,-1.5236,-1.5256,-1.5278,-1.5212,-1.5238,-1.5319,-1.5282,-1.5366,-1.5374,-1.5401,-1.5413,-1.5417,-1.5424,-1.5437,-1.5438,-1.5571,-1.5572,0,0,-1.5232,-1.5226,-1.5273,-1.5283,-1.527,-1.5279,-1.5284,-1.537,-1.5384,-1.5414,-1.542,-1.5426,-1.5438,-1.5439,-1.557,-1.5571,0,0,0,-1.5219,-1.5223,-1.5243,-1.5279,-1.5294,-1.5282,-1.5288,-1.538,-1.5386,-1.5421,-1.5427,-1.5439,-1.544,-1.557,-1.5571,-1.5597,0,0,0,-1.5216,-1.5216,-1.5241,-1.5238,-1.5292,-1.5337,-1.5295,-1.5381,-1.539,-1.5427,-1.5439,-1.5441,-1.5569,-1.557,-1.5595,-1.5611,0,0,0,-1.5205,-1.5214,-1.5226,-1.5238,-1.5273,-1.5336,-1.5348,-1.5383,-1.5394,-1.5437,-1.5442,-1.5569,-1.557,-1.5593,-1.5608,-1.5645,0,0,0,-1.5192,-1.5249,-1.5227,-1.5292,-1.5272,-1.5352,-1.5347,-1.5407,-1.5447,-1.5439,-1.5569,-1.5571,-1.5592,-1.5606,-1.5642,-1.5675,-1.5688,0,0,-1.5261,-1.5257,-1.5296,-1.5279,-1.536,-1.5339,-1.5426,-1.5467,-1.5477,-1.5539,-1.5543,-1.5596,-1.5607,-1.5644,-1.5762,-1.5772,0,0,0,-1.5316,-1.5344,-1.5367,-1.5404,-1.5437,-1.5467,-1.5497,-1.5512,-1.5566,-1.5507,-1.5619,-1.5626,-1.5648,-1.5664,-1.5673,-1.5692,-1.5578,-1.5577,-1.5577,-1.5405,-1.5414,-1.5479,-1.5498,-1.5535,-1.5564,-1.5595,-1.5622,-1.5619,-1.5646,-1.5665,-1.5735,-1.5753,-1.576,-1.578,-1.5682,-1.5682,-1.5682,-1.5682,-1.5507,-1.5548,-1.5544,-1.5606,-1.5615,-1.5668,-1.5699,-1.5696,-1.5747,-1.5721,-1.5741,-1.5713,-1.5771,-1.5789,-1.5685,-1.5684,-1.5684,-1.5684,-1.5684,-1.5567,-1.5588,-1.5606,-1.5662,-1.5704,-1.5721,-1.577,-1.5777,-1.5783,-1.5803,-1.5824,-1.5823,-1.5824,-1.5812,-1.5812,-1.5813,-1.5813,-1.5813,-1.5813,-1.5622,-1.5642,-1.5682,-1.5722,-1.5747,-1.5782,-1.5812,-1.5838,-1.5868,-1.5869,-1.5869,-1.5865,-1.5775,-1.5752,-1.5817,-1.5816,-1.5816,-1.5815,-1.5815,-1.5723,-1.5702,-1.5764,-1.5789,-1.5837,-1.5879,-1.5886,-1.5938,-1.596,-1.5984,-1.5976,-1.5908,-1.5905,-1.5898,-1.5879,-1.5973,-1.5973,-1.5973,-1.5973,-1.5775,-1.5773,-1.5839,-1.5879,-1.5919,-1.5932,-1.6003,-1.6028,-1.6051,-1.6065,-1.6052,-1.6028,-1.6021,-1.6022,-1.6012,-1.5995,-1.6117,-1.6117,-1.6117,-1.5838,-1.5841,-1.59,-1.592,-1.5959,-1.5991,-1.6059,-1.6106,-1.6127,-1.6123,-1.6077,-1.6071,-1.6032,-1.6018,-1.6014,-1.5999,-1.5967,0,0]},{"header":{"parameterUnit":"m.s-1","parameterCategory":1,"la1":30.2992,"la2":30.254,"lo1":-89.0895,"lo2":-89.0443,"dy":0.0025,"dx":0.0025,"nx":19,"ny":19,"refTime":"2026-05-15T21:00:00:Z","depth":0,"parameterNumber":3,"parameterNumberName":"V-component_of_WINDS"},"data":[0,0,0,3.5575,3.5577,3.567,3.567,3.5794,3.5796,0,0,0,0,0,0,0,0,0,0,0,3.5554,3.5555,3.5575,3.5577,3.567,3.567,3.5794,3.5796,0,0,0,0,0,0,0,0,0,0,0,3.5554,3.5555,3.5556,3.5578,3.567,3.567,3.5794,3.5721,0,0,0,0,0,0,0,0,0,0,3.563,3.5618,3.5555,3.5556,3.5578,3.567,3.567,3.5717,3.5726,3.5756,0,3.5787,0,3.5794,3.5805,3.5805,0,0,0,3.5571,3.5611,3.5631,3.5557,3.5579,3.567,3.5626,3.5722,3.5731,3.5767,3.5789,3.5793,3.5796,3.5805,3.5806,3.6005,3.6006,0,0,3.5566,3.5574,3.5624,3.5637,3.5627,3.5623,3.5629,3.5727,3.5751,3.5789,3.5796,3.5798,3.5806,3.5807,3.6004,3.6005,0,0,0,3.5556,3.5571,3.5587,3.5632,3.5649,3.5626,3.5633,3.5747,3.5751,3.5797,3.5799,3.5807,3.5809,3.6002,3.6004,3.607,0,0,0,3.5552,3.5564,3.5585,3.5591,3.5647,3.57,3.565,3.5745,3.5756,3.5799,3.5807,3.581,3.6001,3.6003,3.6065,3.6099,0,0,0,3.5546,3.5563,3.5579,3.5591,3.5631,3.5698,3.5708,3.5747,3.5757,3.5805,3.581,3.6,3.6003,3.6061,3.6092,3.6152,0,0,0,3.554,3.5637,3.5581,3.5689,3.5631,3.5739,3.5707,3.5788,3.5837,3.5808,3.6001,3.6004,3.606,3.6088,3.6148,3.6203,3.6227,0,0,3.5666,3.5652,3.5715,3.5667,3.5788,3.5724,3.5854,3.5891,3.5888,3.5965,3.597,3.6067,3.6092,3.6151,3.6363,3.6383,0,0,0,3.5757,3.5802,3.5833,3.5881,3.5913,3.5942,3.5959,3.5972,3.6037,3.593,3.6106,3.612,3.6154,3.618,3.6197,3.6224,3.6017,3.6017,3.6016,3.5944,3.5936,3.6039,3.6042,3.6088,3.6104,3.614,3.616,3.6138,3.618,3.6202,3.6332,3.6362,3.6375,3.6404,3.6232,3.6232,3.6232,3.6233,3.6126,3.6187,3.6155,3.6243,3.6233,3.6305,3.6324,3.6305,3.6369,3.6315,3.6345,3.6284,3.6396,3.6421,3.6238,3.6237,3.6236,3.6236,3.6235,3.6246,3.6273,3.6289,3.6357,3.6409,3.6408,3.6471,3.6459,3.6448,3.6478,3.6498,3.6497,3.6492,3.6489,3.6489,3.649,3.649,3.6491,3.6491,3.6363,3.6379,3.6435,3.6476,3.6504,3.654,3.6556,3.6582,3.6608,3.6594,3.6594,3.6566,3.641,3.637,3.6498,3.6497,3.6496,3.6495,3.6495,3.6546,3.6503,3.6589,3.6618,3.6663,3.6714,3.6699,3.6754,3.6774,3.6805,3.677,3.6658,3.6642,3.6629,3.6595,3.6774,3.6774,3.6774,3.6774,3.6646,3.6637,3.6722,3.6767,3.6811,3.6805,3.6899,3.6912,3.6918,3.6929,3.6901,3.6857,3.6844,3.6835,3.6818,3.6786,3.7009,3.7009,3.701,3.6757,3.6752,3.6835,3.6842,3.6877,3.6906,3.6993,3.7044,3.7042,3.7019,3.6936,3.6926,3.6854,3.6831,3.6805,3.6778,3.6719,0,0]}]]